#timestamp,LO_Frequency,Hit,StdDev 
1623571215.8,286046999.9,N
1623571235.6,286047001.0,N
1623571255.5,286046998.6,N
1623571275.3,286046999.4,N
1623571295.2,286046996.9,N
1623571315.9,286046998.8,N
1623571335.7,286046997.1,N
1623571355.6,286047001.1,N
1623571375.4,286047000.4,N
1623571395.2,286046998.2,N
1623571415.1,286046996.6,N
1623571416.0,286046996.6,N
1623571435.8,286046994.9,N
1623571455.7,286046995.2,N
1623571475.5,286046995.3,N
1623571495.3,286046996.2,N
1623571515.2,286046996.2,N
1623571535.9,286046995.9,N
1623571555.7,286046993.3,Y
1623571575.6,286046995.7,P
1623571595.4,286046994.9,P
1623571615.2,286046997.6,N
1623571635.1,286046997.9,N
1623571636.0,286046997.9,N
1623571655.8,286046996.9,N
1623571675.7,286046996.8,N
1623571695.5,286046997.0,N
1623571715.3,286046999.6,N
1623571735.2,286046999.5,N
1623571755.0,286046996.6,N
1623571755.9,286046996.6,N
1623571775.8,286046996.7,N
1623571795.6,286046999.4,N
1623571815.4,286046999.3,N
1623571835.3,286046996.6,N
1623571855.1,286046997.2,N
1623571856.0,286046997.2,N
1623571875.8,286046999.3,N
1623571895.7,286046998.6,N
1623571915.5,286046996.9,N
1623571935.3,286046996.5,N
1623571955.2,286046996.5,N
1623571975.0,286046999.0,N
1623571975.9,286046999.0,N
1623571995.8,286046998.3,N
1623572015.6,286046998.5,N
1623572035.4,286046998.2,N
1623572055.3,286047000.7,N
1623572075.1,286046999.5,N
1623572095.8,286046998.6,N
1623572115.7,286046998.1,N
1623572135.5,286047000.7,N
1623572155.4,286046998.4,N
1623572175.2,286047000.6,N
1623572195.0,286046998.2,N
1623572195.9,286046998.2,N
1623572215.8,286047001.0,N
1623572235.6,286047002.4,N
1623572255.4,286047000.6,N
1623572275.3,286047000.2,N
1623572295.1,286047000.7,N
1623572315.9,286047002.6,N
1623572335.7,286047001.8,N
1623572355.5,286047002.3,N
1623572375.4,286047002.7,N
1623572395.2,286046999.9,N
1623572415.0,286047001.2,N
1623572416.0,286047001.2,N
1623572435.8,286047000.8,N
1623572455.6,286047001.1,N
1623572475.5,286047002.7,N
1623572495.3,286047002.5,N
1623572515.1,286047002.8,N
1623572535.9,286047002.2,N
1623572555.7,286047001.5,N
1623572575.6,286047000.8,N
1623572595.4,286046999.9,N
1623572615.2,286047002.2,N
1623572635.1,286047002.0,N
1623572636.0,286047002.0,N
1623572655.8,286047002.0,N
1623572675.7,286047001.7,N
1623572695.5,286046999.7,N
1623572715.4,286047001.9,N
1623572735.2,286047000.3,N
1623572755.0,286047000.3,N
1623572755.9,286047000.3,N
1623572775.8,286047002.0,N
1623572795.6,286047000.2,N
1623572815.5,286046999.8,N
1623572835.3,286046999.9,N
1623572855.1,286047002.4,N
1623572875.9,286047001.7,N
1623572925.8,286047003.9,E
1623572935.7,286047000.3,N
1623572955.5,286047000.0,P
1623572975.4,286047000.8,P
1623572995.2,286047000.5,N
1623573015.0,286046998.9,Y
1623573015.9,286046998.9,P
1623573035.8,286046997.0,P
1623573055.6,286046997.7,N
1623573075.5,286046997.0,N
1623573095.3,286046996.5,N
1623573115.1,286046998.2,N
1623573135.9,286046998.5,N
1623573155.7,286046998.3,N
1623573175.5,286047000.3,N
1623573195.4,286046999.5,N
1623573215.2,286046996.6,N
1623573235.1,286047001.2,N
1623573236.0,286047001.2,N
1623573255.8,286047000.3,N
1623573275.6,286047000.5,N
1623573295.5,286047000.8,N
1623573315.3,286046998.8,N
1623573335.2,286046998.2,N
1623573355.9,286046998.1,N
1623573375.7,286046997.1,N
1623573395.6,286046999.5,N
1623573415.4,286046997.2,N
1623573435.2,286046997.4,N
1623573455.1,286046995.0,Y
1623573456.0,286046995.0,P
1623573475.8,286046996.7,N
1623573495.7,286046998.9,N
1623573515.5,286046996.6,N
1623573535.4,286046999.5,N
1623573555.2,286046999.1,N
1623573575.0,286046998.9,N
1623573575.9,286046998.9,N
1623573595.8,286046998.4,N
1623573615.6,286046998.2,N
1623573635.5,286047000.6,N
1623573655.3,286047000.0,N
1623573675.1,286047002.3,N
1623573695.9,286046999.9,N
1623573715.7,286047001.6,N
1623573735.5,286047002.3,N
1623573755.4,286047002.6,N
1623573775.2,286047002.7,N
1623573795.1,286047002.8,N
1623573796.0,286047002.8,N
1623573815.8,286047002.8,N
1623573835.6,286046999.9,N
1623573855.5,286047001.9,N
1623573875.3,286047004.2,N
1623573895.1,286047004.1,N
1623573915.9,286047003.7,N
1623573935.7,286047003.5,N
1623573955.6,286047001.5,N
1623573975.4,286047004.2,N
1623573995.2,286047002.3,N
1623574015.1,286047002.3,N
1623574016.0,286047002.3,N
1623574035.8,286047002.7,N
1623574055.6,286046998.7,N
1623574075.5,286047001.2,N
1623574095.3,286047001.0,N
1623574115.2,286047000.2,N
1623574135.9,286047000.5,N
1623574155.2,286047002.3,N
1623574175.0,286047002.3,N
1623574175.9,286047002.3,N
1623574195.8,286047002.3,N
1623574215.6,286047000.3,N
1623574235.4,286047002.3,N
1623574255.3,286046999.8,N
1623574275.1,286047000.3,N
1623574295.8,286047001.9,N
1623574315.7,286047002.5,N
1623574335.5,286047000.2,N
1623574355.4,286046999.7,N
1623574375.2,286047000.2,N
1623574395.0,286047002.5,N
1623574395.9,286047002.5,N
1623574415.8,286047002.3,N
1623574435.6,286047002.1,N
1623574455.5,286047000.1,N
1623574475.3,286047002.2,N
1623574495.1,286047001.4,N
1623574515.9,286047003.7,Y
1623574535.7,286047000.2,P
1623574555.5,286047000.4,N
1623574575.4,286047000.1,N
1623574595.2,286046999.8,N
1623574615.1,286047001.5,N
1623574616.0,286047001.5,N
1623574635.8,286047000.5,N
1623574655.6,286046999.1,N
1623574675.5,286046998.6,N
1623574695.3,286046998.2,N
1623574715.2,286047000.7,N
1623574735.9,286046998.6,N
1623574755.7,286046998.3,N
1623574775.6,286046999.5,N
1623574795.4,286047000.9,N
